STARLINK-1297, 45395

Orbit data source: Space-Track

STARLINK-1297, 45395 is a payload satellite owned by SpaceX/Seattle (US) in LEO that was launched on Wed, 18 Mar 2020 UTC via an FALCON 9 launch vehicle from the Air Force Eastern Test Range (AFETR). Payloads include a variety of satellites, spacecraft, and rockets equipped with specific instruments for various scientific and technological missions. These include communications satellites like Starlink; space stations such as the ISS; scientific satellites like the Hubble; Earth observation satellites from companies like Planet Labs, Umbra, and HawkEye 360; GPS; miniature CubeSats for education and research; and military/defense satellites.

Loading next visibility...
STARLINK-1297 details
Identifier
45395, 2020-019AM
Orbit
LEO
Last TLE update8 hours ago
Origin
Flag of USSpaceX/Seattle (US)
ManufacturerSpaceX/Seattle
MissionOperational Commercial Communications
Bus & MotorSTARLINK, Unknown motor
Mass260 kg wet, ~248 kg dry
Launch date (UTC)
2020-03-18 (5 years ago)
Launch vehicle
FALCON 9
Launch site
Air Force Eastern Test Range (AFETR)
Object type
Payload
Rocket body
Debris
Shape & HBRBox + 1 Pan, 8.86 m
Radar Cross Section13.562 m², Large (>1 m²)

Expand to show TLE details & history

TLE from 8 hours ago
0 STARLINK-1297
1 45395U 20019AM  24361.10396606  .00025677  00000-0  17347-2 0  9996
2 45395  53.0563 315.5059 0001333  93.9611 266.1530 15.06437051263665
Epoch: 2024-12-26T02:29Z
Definitive object data (Epoch: 2024-12-26T02:29:42.667Z)
Latitude-0.00006°
Longitude-177.01008°
Altitude548.039 km
Speed7.589 km/s
True Right ascension21h 02m 01s
True Declination0° 00' 00"
Sunlit
Object was in daylight at TLE epoch
Visualization TLE readout
Latitude20.45972°
Longitude-162.31888°
Altitude547.207 km
Speed7.592 km/s
Apparent Right ascension21h 58m 29s
Apparent Declination-8° 18' 47"
Sunlit
Object is in daylight
Visualization observer readout
Local Sidereal Time09:55:26
Azimuth358.561° N
Elevation-58.39°
Doppler factor1
Orbital elements
Apogee altitude548.292 km
Perigee altitude546.445 km
Semi-major axis6,925.505 km
Eccentricity0.0001333
Inclination53.0563°
RAAN315.5059°
Arg. of periapsis93.9611°
True anomaly266.13776°
Mean anomaly266.153°
Eccentric anomaly266.14538°
Mean motion3.76588 °/min
BSTAR0.0017347
Orbital period95.6 mins
Loading maneuver chart data...
Loading historical data...
Loading historical data...
Loading historical data...
Loading historical data...
Loading historical data...
Loading historical data...
Loading historical data...

STARLINK-1297 Visibility forecast

Observer location: undefined°, undefined

Span
Click to sort rows by Start time (UTC) header in descending order
Start Az.
Max El. time (UTC)
Max El. Az.
Max El.
End time (UTC)
End Az.
7 mins2024-12-26 23:21:14.008Z204.248° SW2024-12-26 23:24:14.008Z148.493° SSE34.993°2024-12-26 23:28:14.008Z62.151° ENE
5 mins2024-12-27 01:02:14.008Z286.223° WNW2024-12-27 01:04:14.008Z333.819° NNW26.856°2024-12-27 01:07:14.008Z30.31° NE
6 mins2024-12-27 06:03:14.008Z325.569° NNW2024-12-27 06:06:14.008Z48.923° ENE36.127°2024-12-27 06:09:14.008Z106.597° ESE
5 mins2024-12-27 07:43:14.008Z270.922° WNW2024-12-27 07:45:14.008Z230.844° WSW22.316°2024-12-27 07:48:14.008Z178.914° S
|